Easton, MD

12:53 PM EDT on September 18, 2019 (GMT -0400)
Easton / Newnam

Weather History for KESN - July, 2019

Change the Weather History Date:

Wednesday, July 31, 2019

  Actual Average Record
Temperature  
Mean Temperature 82 °F -  
Max Temperature 91 °F 87 °F 100 °F (1954)
Min Temperature 73 °F 65 °F 58 °F (1956)
Cooling Degree Days 17    
Growing Degree Days 32 (Base 50)    
Moisture  
Dew Point 71 °F    
Average Humidity 77    
Maximum Humidity 96    
Minimum Humidity 43    
Precipitation  
Precipitation 0.00 in - - ()
Sea Level Pressure  
Sea Level Pressure 30.06 in    
Wind  
Wind Speed 4 mph (SW)    
Max Wind Speed 9 mph    
Max Gust Speed -    
Visibility 10 miles    
Events Rain    
Averages and records for this station are not official NWS values.
T = Trace of Precipitation, MM = Missing Value Source: NWS Daily Summary

Daily Weather History Graph

Daily Weather History Graph

Search for Another Location

Airport or City:

Astronomy

Jul. 31, 2019 Rise Set
Actual Time 6:04 AM EDT 8:16 PM EDT
Civil Twilight 5:34 AM EDT 8:46 PM EDT
Nautical Twilight 4:58 AM EDT 9:22 PM EDT
Astronomical Twilight 4:18 AM EDT 10:02 PM EDT
Moon 5:15 AM EDT (7/31) 8:13 PM EDT (7/31)
Length of Visible Light 15h 11m
Length of Day
14h 12m
Waning Crescent, 0% of the Moon is Illuminated
Jul 31
Waning Crescent
Jul 31
New
Aug 7
First Quarter
Aug 15
Full
Aug 23
Last Quarter

Hourly Weather History & Observations

Time (EDT) Temp. Heat Index Dew Point Humidity Pressure Visibility Wind Dir Wind Speed Gust Speed Precip Events Conditions
12:18 AM 79.9 °F - 71.2 °F 75% 30.06 in 10.0 mi South 6.9 mph - N/A   Clear
12:38 AM 79.9 °F - 72.0 °F 77% 30.05 in 10.0 mi South 5.8 mph - N/A   Clear
12:58 AM 79.7 °F - 72.7 °F 79% 30.05 in 10.0 mi South 5.8 mph - N/A   Clear
1:18 AM 79.7 °F - 72.7 °F 79% 30.05 in 10.0 mi SSE 6.9 mph - N/A   Clear
1:38 AM 79.5 °F - 72.5 °F 79% 30.05 in 10.0 mi South 6.9 mph - N/A   Clear
1:58 AM 78.1 °F - 72.3 °F 82% 30.05 in 10.0 mi SSW 5.8 mph - N/A   Clear
2:18 AM 78.1 °F - 71.8 °F 81% 30.05 in 10.0 mi SW 4.6 mph - N/A   Clear
2:38 AM 77.7 °F - 70.0 °F 77% 30.05 in 10.0 mi SW 4.6 mph - N/A   Clear
2:58 AM 77.0 °F - 68.9 °F 76% 30.04 in 10.0 mi South 4.6 mph - N/A   Clear
3:18 AM 76.1 °F - 69.3 °F 79% 30.05 in 10.0 mi Calm Calm - N/A   Clear
3:37 AM 76.5 °F - 68.9 °F 77% 30.04 in 10.0 mi Calm Calm - N/A   Clear
3:58 AM 76.1 °F - 68.5 °F 77% 30.05 in 10.0 mi Calm Calm - N/A   Clear
4:18 AM 75.9 °F - 68.5 °F 78% 30.04 in 10.0 mi Calm Calm - N/A   Clear
4:38 AM 75.0 °F - 68.2 °F 79% 30.04 in 10.0 mi Calm Calm - N/A   Clear
4:58 AM 74.8 °F - 68.9 °F 82% 30.04 in 10.0 mi Calm Calm - N/A   Clear
5:18 AM 73.8 °F - 68.9 °F 85% 30.04 in 10.0 mi Calm Calm - N/A   Clear
5:38 AM 74.1 °F - 69.1 °F 84% 30.04 in 10.0 mi Calm Calm - N/A   Clear
5:41 AM 74.1 °F - 69.1 °F 84% 30.04 in 10.0 mi Calm Calm - N/A   Clear
5:55 AM 73.4 °F - 69.8 °F 88% 30.05 in 10.0 mi Calm Calm - N/A   Scattered Clouds
6:50 AM 73.4 °F - 69.8 °F 88% 30.06 in 10.0 mi Calm Calm - N/A   Partly Cloudy
7:50 AM 78.8 °F - 71.6 °F 78% 30.06 in 10.0 mi Calm Calm - N/A   Partly Cloudy
8:48 AM 82.4 °F 87.2 °F 71.6 °F 70% 30.07 in 10.0 mi Calm Calm - N/A   Clear
9:48 AM 86.0 °F 91.8 °F 71.6 °F 62% 30.08 in 10.0 mi SW 5.8 mph - N/A   Partly Cloudy
10:48 AM 87.8 °F 93.8 °F 71.6 °F 58% 30.08 in 10.0 mi NNW 3.5 mph - N/A   Scattered Clouds
11:50 AM 89.6 °F 96.2 °F 71.6 °F 55% 30.08 in 10.0 mi WSW 3.5 mph - N/A   Scattered Clouds
12:50 PM 89.6 °F 96.2 °F 71.6 °F 55% 30.08 in 10.0 mi WSW 5.8 mph - N/A   Mostly Cloudy
1:51 PM 89.6 °F 94.7 °F 69.8 °F 52% 30.07 in 10.0 mi SW 9.2 mph - N/A   Mostly Cloudy
2:48 PM 91.4 °F 96.8 °F 69.8 °F 49% 30.06 in 10.0 mi SW 4.6 mph - N/A   Mostly Cloudy
3:50 PM 89.6 °F 93.4 °F 68.0 °F 49% 30.03 in 10.0 mi West 4.6 mph - N/A   Scattered Clouds
4:47 PM 91.4 °F 94.0 °F 66.2 °F 43% 30.02 in 10.0 mi Calm Calm - N/A   Scattered Clouds
5:50 PM 86.0 °F 89.4 °F 68.0 °F 55% 30.03 in 10.0 mi West 3.5 mph - N/A   Mostly Cloudy
6:50 PM 82.4 °F 88.2 °F 73.4 °F 74% 30.04 in 10.0 mi SW 5.8 mph - N/A   Overcast
7:45 PM 78.8 °F - 75.2 °F 89% 30.07 in 10.0 mi WNW 5.8 mph - N/A Rain Light Rain
8:50 PM 77.0 °F - 75.2 °F 94% 30.08 in 10.0 mi Calm Calm - N/A   Overcast
9:50 PM 75.2 °F - 73.4 °F 94% 30.06 in 10.0 mi Calm Calm - N/A   Overcast
10:18 PM 75.7 °F - 74.1 °F 95% 30.07 in 7.0 mi Calm Calm - N/A   Scattered Clouds
10:37 PM 75.2 °F - 73.6 °F 95% 30.08 in 7.0 mi Calm Calm - N/A   Scattered Clouds
10:58 PM 75.9 °F - 74.5 °F 95% 30.08 in 7.0 mi South 5.8 mph - N/A   Scattered Clouds
11:18 PM 77.0 °F - 75.4 °F 95% 30.08 in 10.0 mi South 4.6 mph - N/A   Mostly Cloudy
11:38 PM 76.1 °F - 74.5 °F 95% 30.08 in 10.0 mi SSW 3.5 mph - N/A   Scattered Clouds
11:58 PM 75.4 °F - 74.1 °F 96% 30.09 in 10.0 mi SW 3.5 mph - N/A   Clear